User: anonymous   Login
Location: NJAA Observatory
(40.6819°N, 74.8979°W)
Time: 11:55:40
(UTC-04:00)
Language:

Cosmos 220 Rocket - Orbit

View from above orbital plane
View from above orbital plane
View from above satellite
View from above satellite

Ground track
Ground track

The orbit data is extracted from the following two-line orbital elements,

1 03230U 68040B   15241.17726458  .00000676  00000-0  74737-4 0  9990
2 03230 074.0358 119.4703 0032325 246.9359 112.8413 14.89352953537526
Epoch (UTC): 29 August 2015 04:15:15
Eccentricity: 0.0032325
inclination: 74.0358°
perigee height: 577 km
apogee height: 622 km
right ascension of ascending node: 119.4703°
argument of perigee: 246.9359°
revolutions per day: 14.89352953
mean anomaly at epoch: 112.8413°
orbit number at epoch: 53752

The dashed part of the orbit path shows where the satellite is in the earth's shadow,  

DLR